Regional Weather Roundup
Issued by NWS

Home | Current Version | Previous Version | Graphics & Text | Print | Product List | Glossary On
Versions: 1 2 3 4 5 6 7 8 9 10 11 12 13 14 15 16 17 18 19 20 21 22 23 24 25 26 27 28 29 30 31 32 33 34 35 36 37 38 39 40 41 42 43 44 45 46 47 48 49 50
000
ASUS45 KSLC 020310
RWRUT

UTAH REGIONAL WEATHER ROUNDUP
NATIONAL WEATHER SERVICE SALT LAKE CITY UT
900 PM MDT FRI AUG 01 2014

UTZ001>011-023>025-020400-

NORTHERN UTAH

CITY           SKY/WX    TMP DP  RH WIND       PRES   REMARKS
HILL AFB       CLEAR     83  45  26 NW2       30.13R
LOGAN          CLEAR     78  54  43 E3        30.10R
OGDEN          CLEAR     80  45  28 CALM      30.09R
PROVO AIRPORT  PTCLDY    79  52  38 SW5       30.11R
SALT LAKE CITY PTCLDY    81  44  27 W6        30.07R
VERNAL         PTCLDY    77  45  32 W5        30.13R
WENDOVER       CLEAR     82  41  23 SE3       30.08R
HEBER CITY     CLEAR     68  52  56 E7        30.19R
WEST JORDAN    CLEAR     81  54  39 NW3       30.12R

$$

UTZ012>022-026-027-020400-

SOUTHERN UTAH

CITY           SKY/WX    TMP DP  RH WIND       PRES   REMARKS
BRYCE CANYON   MOCLDY    68  39  34 NW8       30.33R
CEDAR CITY     PTCLDY    75  44  33 N5        30.15R
MILFORD        PTCLDY    81  37  20 NE8       30.10R
MOAB/CYNLANDS  CLEAR     81  47  30 CALM      30.05R
PRICE          PTCLDY    77  40  26 NW6       30.20R
ST GEORGE      CLEAR     91  66  43 CALM      29.93S HX  94
KANAB            N/A     75  54  46 NW5       30.14

$$

REGIONAL REPORTS     COLORADO/ARIZONA

CITY           SKY/WX    TMP DP  RH WIND       PRES   REMARKS
CRAIG, CO      CLEAR     60  46  59 E6        30.23R
GRAND JUNCTION PTCLDY    74  47  38 CALM      30.13S
RIFLE          CLEAR     71  45  39 E12       30.21R
MONTROSE       PTCLDY    68  51  54 CALM      30.23R
CORTEZ         MOCLDY    73  49  42 E3        30.19R
PAGE, AZ       MOCLDY    87  44  22 W3        30.04S
GRAND CANYON   CLOUDY    69  49  48 W3        30.27R
KINGMAN        PTCLDY    83  50  31 SE30G45   30.01R
FLAGSTAFF      CLOUDY    60  48  64 CALM      30.30R

$$

REGIONAL REPORTS    NEVADA/IDAHO/WYOMING

CITY           SKY/WX    TMP DP  RH WIND       PRES   REMARKS
LAS VEGAS, NV  CLOUDY    99  50  19 S18       29.80S HX  96
ELY            CLOUDY    78  37  22 N6        30.21R
ELKO           MOCLDY    82  33  17 E5        30.11R
POCATELLO, ID  CLEAR     72  45  37 NE13      30.12S
BURLEY         PTCLDY    77  51  40 NE6       30.07R
EVANSTON, WY   PTCLDY    73  32  22 NE9       30.30R
ROCK SPRINGS   MOCLDY    73  32  22 E10       30.28R

$$


USA.gov is the U.S. government's official web portal to all federal, state and local government web resources and services.